Location: Unspecified
(41.5000°N, 0.0000°E)
Time: 17:01:23
(UTC+00:00)

deb Explorer IX - All Passes

Search period start: 20 June 2019 00:00
Search period end: 30 June 2019 00:00
Orbit: 537 x 1115 km, 38.8° (Epoch: 19 June)

Date Brightness Start Highest point End Pass type
(mag) Time Alt. Az. Time Alt. Az. Time Alt. Az.
20 Jun - 12:20:03 10° S 12:24:00 16° SE 12:28:03 10° ESE daylight
20 Jun - 14:03:42 10° SW 14:10:27 42° SSE 14:17:15 10° E daylight
20 Jun - 15:50:18 10° WSW 15:57:40 69° S 16:04:42 10° E daylight
20 Jun - 17:37:48 10° W 17:45:05 66° S 17:51:40 10° ESE daylight
20 Jun - 19:25:44 10° W 19:32:00 35° SSW 19:37:35 10° SE daylight
21 Jun - 11:58:07 10° S 12:02:04 16° SE 12:06:08 10° ESE daylight
21 Jun - 13:41:47 10° SW 13:48:29 43° SSE 13:55:21 10° E daylight
21 Jun - 15:28:21 10° WSW 15:35:42 70° S 15:42:50 10° E daylight
21 Jun - 17:15:49 10° W 17:23:08 66° S 17:29:52 10° ESE daylight
21 Jun - 19:03:43 10° W 19:10:05 36° SSW 19:15:49 10° SE daylight
21 Jun - 20:55:18 10° SW 20:56:04 10° SW 20:56:48 10° SW visible
22 Jun - 11:36:13 10° S 11:40:08 16° SE 11:44:11 10° ESE daylight
22 Jun - 13:19:53 10° SW 13:26:31 43° SSE 13:33:25 10° E daylight
22 Jun - 15:06:25 10° WSW 15:13:44 70° S 15:20:57 10° E daylight
22 Jun - 16:53:51 10° W 17:01:11 66° S 17:08:03 10° ESE daylight
22 Jun - 18:41:43 10° W 18:48:09 36° SSW 18:54:01 10° SE daylight
22 Jun - 20:33:07 10° SW 20:34:10 10° SW 20:35:13 10° SW visible
23 Jun - 11:14:20 10° S 11:18:11 16° SE 11:22:13 10° ESE daylight
23 Jun - 12:58:00 10° SW 13:04:33 43° SSE 13:11:27 10° E daylight
23 Jun - 14:44:30 10° WSW 14:51:45 70° S 14:59:03 10° E daylight
23 Jun - 16:31:53 10° W 16:39:13 66° SSW 16:46:12 10° ESE daylight
23 Jun - 18:19:43 10° W 18:26:13 36° SSW 18:32:13 10° SE daylight
23 Jun - 20:10:59 10° SW 20:12:16 11° SW 20:13:31 10° SW visible
24 Jun - 10:52:28 10° S 10:56:15 16° SE 11:00:14 10° ESE daylight
24 Jun - 12:36:08 10° SW 12:42:35 44° SSE 12:49:28 10° E daylight
24 Jun - 14:22:36 10° WSW 14:29:46 70° S 14:37:07 10° E daylight
24 Jun - 16:09:56 10° W 16:17:15 66° SSW 16:24:19 10° ESE daylight
24 Jun - 17:57:43 10° W 18:04:15 36° SSW 18:10:22 10° SE daylight
24 Jun - 19:48:57 10° WSW 19:50:21 11° SW 19:51:44 10° SSW daylight
25 Jun - 10:30:38 10° S 10:34:19 16° SE 10:38:14 10° ESE daylight
25 Jun - 12:14:17 10° SW 12:20:37 44° SSE 12:27:29 10° E daylight
25 Jun - 14:00:43 10° WSW 14:07:48 71° S 14:15:10 10° E daylight
25 Jun - 15:47:59 10° W 15:55:16 65° SSW 16:02:26 10° ESE daylight
25 Jun - 17:35:44 10° W 17:42:18 35° SSW 17:48:30 10° SSE daylight
25 Jun - 19:26:56 10° WSW 19:28:25 11° SW 19:29:52 10° SSW daylight
26 Jun - 10:08:50 10° S 10:12:24 16° SE 10:16:13 10° ESE daylight
26 Jun - 11:52:28 10° SW 11:58:39 44° SSE 12:05:29 10° E daylight
26 Jun - 13:38:51 10° WSW 13:45:49 71° S 13:53:12 10° E daylight
26 Jun - 15:26:03 10° W 15:33:16 65° SSW 15:40:30 10° ESE daylight
26 Jun - 17:13:45 10° W 17:20:20 35° SSW 17:26:36 10° SSE daylight
26 Jun - 19:04:58 10° WSW 19:06:28 11° SW 19:07:58 10° SSW daylight
27 Jun - 09:47:03 10° S 09:50:30 15° SE 09:54:10 10° ESE daylight
27 Jun - 11:30:39 10° SW 11:36:42 44° SSE 11:43:28 10° E daylight
27 Jun - 13:17:00 10° WSW 13:23:50 71° S 13:31:13 10° E daylight
27 Jun - 15:04:08 10° W 15:11:17 65° SSW 15:18:34 10° ESE daylight
27 Jun - 16:51:48 10° W 16:58:20 35° SSW 17:04:41 10° SSE daylight
27 Jun - 18:43:03 10° WSW 18:44:31 11° SW 18:45:59 10° SSW daylight
28 Jun - 09:25:16 10° S 09:28:35 15° SE 09:32:08 10° ESE daylight
28 Jun - 11:08:52 10° SW 11:14:46 44° SSE 11:21:26 10° E daylight
28 Jun - 12:55:09 10° WSW 13:01:52 71° S 13:09:12 10° E daylight
28 Jun - 14:42:15 10° W 14:49:18 64° SSW 14:56:36 10° ESE daylight
28 Jun - 16:29:52 10° W 16:36:20 34° SSW 16:42:44 10° SSE daylight
28 Jun - 18:21:11 10° SW 18:22:34 11° SW 18:23:55 10° SSW daylight
29 Jun - 09:03:31 10° S 09:06:41 15° SE 09:10:05 10° ESE daylight
29 Jun - 10:47:05 10° SW 10:52:50 44° SSE 10:59:23 10° E daylight
29 Jun - 12:33:20 10° WSW 12:39:54 71° S 12:47:11 10° E daylight
29 Jun - 14:20:22 10° W 14:27:18 63° SSW 14:34:36 10° ESE daylight
29 Jun - 16:07:56 10° W 16:14:21 34° SSW 16:20:47 10° SSE daylight
29 Jun - 17:59:26 10° SW 18:00:36 10° SW 18:01:45 10° SW daylight
